Home   Weather   Columbus Hill   Past weeks
Flag for USA

Past Weather in Columbus Hill, Tennessee, USA — Yesterday and Last 2 Weeks

Now
32 °F

Clear.


Feels Like: 32 °F
Forecast: 51 / 34 °F
Wind: No wind

Location: Crossville Memorial Airport

Current Time: Nov 18, 2019 at 2:58:23 am

Latest Report: Nov 18, 2019 at 1:53 am


Visibility: 10 mi

Pressure: 29.83 "Hg

Humidity: 85%

Dew Point: 28 °F

Location of Columbus HillLocation

Past Weather in Columbus Hill — Graph

°F

Columbus Hill Temperature Yesterday

Maximum temperature yesterday: 58 °F (at 12:53 pm)
Minimum temperature yesterday: 26 °F (at 5:53 am)
Average temperature yesterday: 42 °F

High & Low Weather Summary for the Past Weeks

 TemperatureHumidityPressure
High67 °F (Nov 6, 1:53 pm)97% (Nov 6, 5:59 am)30.42 "Hg (Nov 6, 5:59 am)
Low13 °F (Nov 13, 1:53 am)24% (Nov 6, 1:53 pm)29.84 "Hg (Nov 18, 12:53 am)
Average40 °F68%30.21 "Hg
* Reported Nov 3 1:53 am — Nov 18 12:53 am, Columbus Hill. Weather by CustomWeather, © 2019

Note: Actual official high and low records may vary slightly from our data, if they occured in-between our weather recording intervals... More about our weather records

Advertising

Columbus Hill Weather History for the Previous 24 Hours

Scroll right to see more
 ConditionsComfort  
Time TempWeatherWind HumidityBarometerVisibility
12:53 am
Mon, Nov 18
34 °FClear.3 mph82%29.84 "Hg10 mi
11:53 pm
Sun, Nov 17
36 °FClear.3 mph79%29.85 "Hg10 mi
10:53 pm39 °FClear.No wind73%29.87 "Hg10 mi
9:53 pm40 °FClear.No wind73%29.89 "Hg10 mi
8:53 pm41 °FClear.3 mph67%29.90 "Hg10 mi
7:53 pm42 °FClear.No wind65%29.91 "Hg10 mi
6:53 pm44 °FClear.No wind60%29.94 "Hg10 mi
5:53 pm47 °FClear.No wind54%29.94 "Hg10 mi
4:53 pm50 °FClear.No wind46%29.93 "Hg10 mi
3:53 pm53 °FClear.7 mph43%29.93 "Hg10 mi
2:53 pm57 °FSunny.9 mph36%29.94 "Hg10 mi
1:53 pm58 °FSunny.9 mph33%29.93 "Hg10 mi
12:53 pm58 °FSunny.3 mph31%29.95 "Hg10 mi
11:53 am57 °FSunny.8 mph32%29.98 "Hg10 mi
10:53 am55 °FSunny.5 mph34%30.01 "Hg10 mi
9:53 am52 °FSunny.No wind45%30.04 "Hg10 mi
8:53 am46 °FSunny.3 mph56%30.06 "Hg10 mi
7:53 am36 °FSunny.No wind79%30.09 "Hg9 mi
6:53 am27 °FIce fog.No wind92%30.11 "Hg4 mi
5:53 am26 °FIce fog.No wind88%30.10 "Hg4 mi
4:53 am27 °FClear.No wind89%30.09 "Hg7 mi
3:53 am27 °FIce fog.No wind89%30.09 "Hg5 mi
2:53 am27 °FIce fog.No wind92%30.08 "Hg5 mi
Weather by CustomWeather, © 2019

See weather overview